Home   Weather   Georgsmarienhütte   Past weeks

Flag for Germany Past Weather in Georgsmarienhütte, Lower Saxony, Germany — Yesterday and Last 2 Weeks

54 °F

Passing clouds.

Feels Like: 51 °F
Forecast: 50 / 56 °F
Wind: 8 mph from Southwest

Location: Muenster / Osnabrueck

Current Time: Oct 27, 2016 at 6:53:05 PM

Latest Report: Oct 27, 2016 at 6:20 PM

Visibility: 6 mi

Pressure: 30.45 "Hg

Humidity: 82%

Dew Point: 48 °F

Location of GeorgsmarienhütteLocation

Past Weather in Georgsmarienhütte — Graph


Georgsmarienhütte Temperature Yesterday

Maximum temperature yesterday: 52 °F (at 2:20 PM)
Minimum temperature yesterday: 36 °F (at 12:50 AM)
Average temperature yesterday: 45 °F

High & Low Weather Summary for the Past Weeks

High64 °F (Oct 16, 2:50 PM)100% (Oct 15, 7:20 PM)30.48 "Hg (Oct 15, 7:20 PM)
Low34 °F (Oct 23, 1:20 AM)56% (Oct 16, 3:20 PM)29.68 "Hg (Oct 15, 1:20 AM)
Average47 °F89%30.04 "Hg
* Reported Oct 12 5:20 PM — Oct 27 5:20 PM, Georgsmarienhütte, Weather by CustomWeather, © 2016

Note: Actual official high and low records may vary slightly from our data, if they occured in-between our weather recording intervals... More about our weather records


Georgsmarienhütte Weather History for the Previous 24 Hours

Scroll right to see more
Time TempWeatherWind HumidityBarometerVisibility
5:20 PM
Thu, Oct 27
54 °FPartly sunny.7 mph88%30.48 "Hg4 mi
4:50 PM54 °FFog.7 mph88%30.48 "Hg3 mi
4:20 PM54 °FFog.7 mph88%30.48 "Hg3 mi
3:50 PM54 °FFog.10 mph88%30.48 "Hg3 mi
3:20 PM54 °FFog.12 mph88%30.48 "Hg3 mi
2:50 PM54 °FFog.9 mph88%30.45 "Hg3 mi
2:20 PM54 °FFog.9 mph88%30.48 "Hg3 mi
1:50 PM54 °FFog.8 mph88%30.48 "Hg3 mi
1:20 PM54 °FFog.9 mph88%30.48 "Hg2 mi
12:50 PM54 °FFog.8 mph88%30.45 "Hg2 mi
12:20 PM52 °FFog.7 mph94%30.48 "Hg2 mi
11:50 AM52 °FFog.7 mph94%30.45 "Hg1 mi
11:20 AM52 °FFog.7 mph94%30.45 "Hg1 mi
10:50 AM50 °FFog.7 mph100%30.45 "Hg1 mi
10:20 AM50 °FFog.6 mph94%30.45 "Hg1 mi
9:50 AM50 °FFog.6 mph94%30.45 "Hg1 mi
9:20 AM50 °FFog.5 mph94%30.45 "Hg1 mi
8:50 AM50 °FFog.6 mph94%30.42 "Hg1 mi
8:20 AM50 °FFog.6 mph94%30.42 "Hg1 mi
7:50 AM50 °FFog.6 mph94%30.42 "Hg1 mi
7:20 AM50 °FFog.6 mph94%30.42 "Hg1 mi
6:50 AM48 °FFog.5 mph100%30.42 "Hg1 mi
6:20 AM48 °FFog.3 mph94%30.39 "Hg2 mi
5:50 AM48 °FFog.3 mph94%30.39 "Hg2 mi
5:20 AM48 °FLight rain. Fog.3 mph94%30.39 "Hg3 mi
4:50 AM48 °FFog.5 mph94%30.39 "Hg3 mi
4:20 AM48 °FFog.5 mph94%30.39 "Hg3 mi
3:50 AM48 °FFog.5 mph87%30.39 "Hg3 mi
3:20 AM48 °FPassing clouds.3 mph87%30.39 "Hg4 mi
2:50 AM48 °FPassing clouds.3 mph87%30.39 "Hg4 mi
2:20 AM48 °FPassing clouds.3 mph87%30.39 "Hg4 mi
1:50 AM48 °FPassing clouds.3 mph87%30.39 "Hg4 mi
1:20 AM48 °FPassing clouds.5 mph87%30.39 "Hg4 mi
12:20 AM48 °FPassing clouds.5 mph87%30.39 "Hg4 mi
11:50 PM
Wed, Oct 26
48 °FPartly cloudy.6 mph87%30.39 "Hg4 mi
11:20 PM48 °FPassing clouds.3 mph87%30.42 "Hg4 mi
10:50 PM46 °FPassing clouds.5 mph87%30.39 "Hg4 mi
10:20 PM48 °FPassing clouds.3 mph87%30.42 "Hg4 mi
9:50 PM46 °FPartly cloudy.3 mph87%30.39 "Hg4 mi
9:20 PM46 °FPassing clouds.3 mph87%30.39 "Hg4 mi
8:50 PM46 °FPartly cloudy.5 mph87%30.39 "Hg4 mi
8:20 PM46 °FPassing clouds.5 mph87%30.39 "Hg4 mi
7:50 PM46 °FPassing clouds.3 mph93%30.39 "Hg4 mi
7:20 PM46 °FPassing clouds.3 mph87%30.39 "Hg4 mi
6:50 PM46 °FFog.3 mph93%30.36 "Hg3 mi
6:20 PM48 °FFog.2 mph82%30.39 "Hg3 mi
Weather by CustomWeather, © 2016

See weather overviewHow to use our weather pages